When you browse on this site, cookies collect data to enhance your experience and personalize the content and advertising you see.
Visit our Privacy Policy to learn more. By continuing to use the site, you agree to this use of cookies and data.

Previsão horária em Tretniki

Hoje, 11 Julho, Sábado

Tempo Temperatura Precipitação Vento Pressão Humidade
00:00 +15°C° 0 mm 4 m/s 740 mmHg 96%
01:00 +15°C° 0 mm 4 m/s 740 mmHg 96%
02:00 +15°C° 0 mm 4 m/s 740 mmHg 96%
03:00 +17°C° 0 mm 4 m/s 740 mmHg 96%
04:00 +17°C° 0 mm 4 m/s 740 mmHg 96%
05:00 +17°C° 0 mm 4 m/s 739 mmHg 96%
06:00 +17°C° 0 mm 4 m/s 739 mmHg 95%
07:00 +17°C° 0 mm 4 m/s 739 mmHg 95%
08:00 +18°C° 0 mm 4 m/s 739 mmHg 95%
09:00 +18°C° 0.3 mm 4 m/s 739 mmHg 95%
10:00 +19°C° 0.3 mm 5 m/s 738 mmHg 96%
11:00 +19°C° 0.3 mm 5 m/s 738 mmHg 96%
12:00 +20°C° 0.4 mm 5 m/s 739 mmHg 91%
13:00 +21°C° 0.4 mm 5 m/s 739 mmHg 85%
14:00 +22°C° 0.4 mm 5 m/s 740 mmHg 80%
15:00 +23°C° 0 mm 5 m/s 740 mmHg 69%
16:00 +23°C° 0 mm 5 m/s 740 mmHg 59%
17:00 +23°C° 0 mm 5 m/s 740 mmHg 48%
18:00 +21°C° 0 mm 4 m/s 741 mmHg 56%
19:00 +19°C° 0 mm 3 m/s 741 mmHg 63%
20:00 +17°C° 0 mm 2 m/s 741 mmHg 71%
21:00 +16°C° 0 mm 2 m/s 742 mmHg 73%
22:00 +14°C° 0 mm 3 m/s 742 mmHg 75%
23:00 +12°C° 0 mm 3 m/s 743 mmHg 77%

Amanhã, 12 Julho, Domingo

Tempo Temperatura Precipitação Vento Pressão Humidade
00:00 +13°C° 0 mm 2 m/s 743 mmHg 77%
01:00 +13°C° 0 mm 2 m/s 743 mmHg 78%
02:00 +13°C° 0 mm 2 m/s 744 mmHg 78%
03:00 +13°C° 0 mm 1 m/s 744 mmHg 79%
04:00 +13°C° 0 mm 1 m/s 744 mmHg 80%
05:00 +13°C° 0 mm 1 m/s 744 mmHg 81%
06:00 +14°C° 0 mm 1 m/s 744 mmHg 79%
07:00 +14°C° 0 mm 1 m/s 744 mmHg 77%
08:00 +14°C° 0 mm 0 m/s 744 mmHg 75%
09:00 +13°C° 0 mm 0 m/s 744 mmHg 76%
10:00 +14°C° 0 mm 1 m/s 744 mmHg 78%
11:00 +14°C° 0 mm 1 m/s 744 mmHg 79%
12:00 +14°C° 0.3 mm 1 m/s 744 mmHg 84%
13:00 +13°C° 0.3 mm 2 m/s 744 mmHg 88%
14:00 +12°C° 0.3 mm 2 m/s 744 mmHg 93%
15:00 +12°C° 0.3 mm 2 m/s 744 mmHg 94%
16:00 +12°C° 0.3 mm 1 m/s 743 mmHg 95%
17:00 +12°C° 0.3 mm 1 m/s 743 mmHg 96%
18:00 +12°C° 0 mm 1 m/s 743 mmHg 96%
19:00 +11°C° 0 mm 1 m/s 743 mmHg 96%
20:00 +11°C° 0 mm 1 m/s 743 mmHg 96%
21:00 +11°C° 0 mm 1 m/s 743 mmHg 96%
22:00 +11°C° 0 mm 1 m/s 742 mmHg 97%
23:00 +11°C° 0 mm 1 m/s 742 mmHg 97%

Depois de amanhã, 13 Julho, Segunda-feira

Tempo Temperatura Precipitação Vento Pressão Humidade
00:00 +11°C° 0.2 mm 1 m/s 742 mmHg 97%
01:00 +11°C° 0.2 mm 1 m/s 742 mmHg 97%
02:00 +11°C° 0.2 mm 1 m/s 742 mmHg 97%
03:00 +11°C° 0.6 mm 1 m/s 741 mmHg 97%
04:00 +11°C° 0.6 mm 1 m/s 741 mmHg 97%
05:00 +11°C° 0.6 mm 1 m/s 741 mmHg 97%
06:00 +12°C° 0.1 mm 1 m/s 741 mmHg 94%
07:00 +13°C° 0.1 mm 1 m/s 741 mmHg 91%
08:00 +14°C° 0.1 mm 2 m/s 741 mmHg 88%
09:00 +15°C° 0 mm 2 m/s 741 mmHg 79%
10:00 +17°C° 0 mm 2 m/s 741 mmHg 70%
11:00 +19°C° 0 mm 2 m/s 741 mmHg 60%
12:00 +19°C° 0 mm 2 m/s 741 mmHg 57%
13:00 +20°C° 0 mm 2 m/s 741 mmHg 54%
14:00 +21°C° 0 mm 2 m/s 741 mmHg 51%
15:00 +21°C° 0 mm 2 m/s 740 mmHg 53%
16:00 +20°C° 0 mm 2 m/s 740 mmHg 56%
17:00 +20°C° 0 mm 2 m/s 740 mmHg 58%
18:00 +19°C° 0 mm 2 m/s 740 mmHg 66%
19:00 +18°C° 0 mm 1 m/s 740 mmHg 75%
20:00 +15°C° 0 mm 1 m/s 740 mmHg 84%
21:00 +14°C° 0 mm 1 m/s 740 mmHg 86%
22:00 +13°C° 0 mm 1 m/s 739 mmHg 89%
23:00 +12°C° 0 mm 1 m/s 739 mmHg 91%

14 Julho, Terça-feira

Tempo Temperatura Precipitação Vento Pressão Humidade
00:00 +12°C° 0 mm 1 m/s 740 mmHg 92%
01:00 +11°C° 0 mm 1 m/s 740 mmHg 93%
02:00 +11°C° 0 mm 1 m/s 740 mmHg 93%
03:00 +11°C° 0 mm 1 m/s 740 mmHg 91%
04:00 +11°C° 0 mm 1 m/s 740 mmHg 88%
05:00 +12°C° 0 mm 1 m/s 740 mmHg 85%
06:00 +13°C° 0 mm 2 m/s 740 mmHg 76%
07:00 +15°C° 0 mm 2 m/s 740 mmHg 68%
08:00 +17°C° 0 mm 2 m/s 741 mmHg 59%
09:00 +19°C° 0 mm 2 m/s 741 mmHg 55%
10:00 +20°C° 0 mm 2 m/s 741 mmHg 51%
11:00 +21°C° 0 mm 2 m/s 741 mmHg 46%
12:00 +22°C° 0 mm 3 m/s 741 mmHg 46%
13:00 +22°C° 0 mm 3 m/s 741 mmHg 45%
14:00 +22°C° 0 mm 3 m/s 741 mmHg 44%
15:00 +22°C° 0 mm 3 m/s 741 mmHg 46%
16:00 +21°C° 0 mm 3 m/s 741 mmHg 48%
17:00 +21°C° 0 mm 3 m/s 740 mmHg 50%
18:00 +19°C° 0 mm 2 m/s 741 mmHg 58%
19:00 +17°C° 0 mm 2 m/s 741 mmHg 66%
20:00 +15°C° 0 mm 2 m/s 741 mmHg 73%
21:00 +14°C° 0 mm 2 m/s 741 mmHg 74%
22:00 +13°C° 0 mm 2 m/s 741 mmHg 75%
23:00 +12°C° 0 mm 2 m/s 741 mmHg 76%

15 Julho, Quarta-feira

Tempo Temperatura Precipitação Vento Pressão Humidade
00:00 +10°C° 0 mm 2 m/s 741 mmHg 80%
01:00 +10°C° 0 mm 2 m/s 741 mmHg 84%
02:00 +10°C° 0 mm 2 m/s 741 mmHg 87%
03:00 +10°C° 0 mm 2 m/s 741 mmHg 86%
04:00 +10°C° 0 mm 2 m/s 742 mmHg 84%
05:00 +12°C° 0 mm 2 m/s 742 mmHg 83%
06:00 +13°C° 0 mm 2 m/s 742 mmHg 76%
07:00 +15°C° 0 mm 2 m/s 742 mmHg 69%
08:00 +17°C° 0 mm 3 m/s 741 mmHg 61%
09:00 +18°C° 0 mm 3 m/s 741 mmHg 57%
10:00 +19°C° 0 mm 3 m/s 741 mmHg 53%
11:00 +20°C° 0 mm 4 m/s 741 mmHg 49%
12:00 +21°C° 0 mm 4 m/s 741 mmHg 48%
13:00 +22°C° 0 mm 4 m/s 740 mmHg 47%
14:00 +22°C° 0 mm 4 m/s 740 mmHg 45%
15:00 +22°C° 0 mm 3 m/s 740 mmHg 48%
16:00 +22°C° 0 mm 3 m/s 740 mmHg 51%
17:00 +22°C° 0 mm 3 m/s 740 mmHg 53%
18:00 +20°C° 0 mm 3 m/s 740 mmHg 61%
19:00 +19°C° 0 mm 2 m/s 740 mmHg 69%
20:00 +17°C° 0 mm 2 m/s 740 mmHg 77%
21:00 +16°C° 0 mm 2 m/s 739 mmHg 80%
22:00 +15°C° 0 mm 2 m/s 739 mmHg 84%
23:00 +14°C° 0 mm 2 m/s 739 mmHg 87%

16 Julho, Quinta-feira

Tempo Temperatura Precipitação Vento Pressão Humidade
00:00 +14°C° 0 mm 2 m/s 739 mmHg 86%
01:00 +14°C° 0 mm 2 m/s 739 mmHg 86%
02:00 +13°C° 0 mm 2 m/s 738 mmHg 86%
03:00 +14°C° 0 mm 2 m/s 738 mmHg 85%
04:00 +14°C° 0 mm 2 m/s 738 mmHg 84%
05:00 +14°C° 0 mm 2 m/s 738 mmHg 83%
06:00 +15°C° 0 mm 2 m/s 738 mmHg 77%
07:00 +17°C° 0 mm 2 m/s 737 mmHg 71%
08:00 +18°C° 0 mm 3 m/s 737 mmHg 65%
09:00 +18°C° 0 mm 3 m/s 737 mmHg 63%
10:00 +19°C° 0 mm 3 m/s 737 mmHg 60%
11:00 +19°C° 0 mm 3 m/s 736 mmHg 58%
12:00 +19°C° 0 mm 3 m/s 736 mmHg 61%
13:00 +18°C° 0 mm 3 m/s 736 mmHg 63%
14:00 +18°C° 0 mm 3 m/s 736 mmHg 65%
15:00 +17°C° 0 mm 2 m/s 736 mmHg 65%
16:00 +17°C° 0 mm 2 m/s 735 mmHg 65%
17:00 +17°C° 0 mm 2 m/s 735 mmHg 65%
18:00 +16°C° 0 mm 2 m/s 735 mmHg 70%
19:00 +15°C° 0 mm 1 m/s 734 mmHg 74%
20:00 +14°C° 0 mm 1 m/s 734 mmHg 79%
21:00 +13°C° 0 mm 1 m/s 734 mmHg 80%
22:00 +12°C° 0 mm 1 m/s 734 mmHg 82%
23:00 +12°C° 0 mm 1 m/s 734 mmHg 84%
Mostrar mais